Location: Chuathbaluk
(61.5726°N, 159.2454°W)
Time: 16:02:04
(UTC+00:00)

Tiros 1 - Visible Passes

Search period start: 24 November 2020 00:00
Search period end: 04 December 2020 00:00
Orbit: 630 x 664 km, 48.4° (Epoch: 23 November)

Date Brightness Start Highest point End Pass type
(mag) Time Alt. Az. Time Alt. Az. Time Alt. Az.
24 Nov 9.4 05:10:37 10° SSW 05:12:15 13° S 05:12:15 13° S visible
25 Nov 9.4 05:35:30 10° SSW 05:37:09 15° S 05:37:09 15° S visible
26 Nov 9.3 04:20:36 10° S 04:22:55 13° SSE 04:24:22 12° SE visible
26 Nov 9.6 06:00:49 10° SW 06:02:01 14° SSW 06:02:01 14° SSW visible
27 Nov 9.2 04:45:25 10° SSW 04:48:18 16° S 04:49:13 15° SSE visible
27 Nov 9.9 06:26:29 10° SW 06:26:53 11° SW 06:26:53 11° SW visible
28 Nov 9.5 03:30:36 10° S 03:32:50 13° SSE 03:35:03 10° SE visible
28 Nov 9.2 05:10:42 10° SW 05:13:44 17° S 05:14:05 17° S visible
29 Nov 9.4 03:55:21 10° SSW 03:58:13 16° S 04:01:04 10° SE visible
29 Nov 9.4 05:36:20 10° SW 05:38:57 16° SSW 05:38:57 16° SSW visible
30 Nov 9.6 02:40:36 10° S 02:42:44 13° SSE 02:44:52 10° SE visible
30 Nov 9.4 04:20:35 10° SW 04:23:38 17° S 04:26:12 12° SE visible
30 Nov 9.7 06:02:23 10° SW 06:03:52 13° SSW 06:03:52 13° SSW visible
01 Dec 9.5 03:05:17 10° SSW 03:08:07 16° S 03:10:57 10° SE visible
01 Dec 9.4 04:46:11 10° SW 04:49:04 16° S 04:51:09 12° SSE visible
02 Dec 9.5 03:30:29 10° SW 03:33:32 17° S 03:36:35 10° SE visible
02 Dec 9.6 05:12:11 10° SW 05:14:26 13° SSW 05:16:09 11° S visible
03 Dec 9.6 03:56:02 10° SW 03:58:57 16° S 04:01:53 10° SSE visible
